Weather History for KGDV - November, 2012

Change the Weather History Date:

Sunday, November 11, 2012

  Actual Average Record
Temperature  
Mean Temperature 6 °F -  
Max Temperature 14 °F 40 °F 62 °F (1999)
Min Temperature -2 °F 20 °F -7 °F (2000)
Degree Days  
Heating Degree Days 59    
Moisture  
Dew Point 3 °F    
Average Humidity 77    
Maximum Humidity 85    
Minimum Humidity 61    
Precipitation  
Precipitation 0.00 in - - ()
Sea Level Pressure  
Sea Level Pressure 29.97 in    
Wind  
Wind Speed 15 mph (WNW)    
Max Wind Speed 23 mph    
Max Gust Speed 30 mph    
Visibility 9 miles    
Events      
Averages and records for this station are not official NWS values.
T = Trace of Precipitation, MM = Missing Value Source: NWS Daily Summary

Daily Weather History Graph

Daily Weather History Graph

Search for Another Location

Airport or City:

Trip Planner

Search our weather history database for the weather conditions in past years. The results will help you decide how hot, cold, wet, or windy it might be!

Date:

Astronomy

Nov. 11, 2012 Rise Set
Actual Time 6:57 AM MST 4:28 PM MST
Civil Twilight 6:25 AM MST 5:01 PM MST
Nautical Twilight 5:48 AM MST 5:37 PM MST
Astronomical Twilight 5:12 AM MST 6:13 PM MST
Moon 4:06 AM MST (11/11) 2:59 PM MST (11/11)
Length of Visible Light 10h 36m
Length of Day
9h 30m
Waning Crescent, 7% of the Moon is Illuminated
Nov 11
Waning Crescent
Nov 13
New
Nov 20
First Quarter
Nov 28
Full
Dec 6
Last Quarter

Hourly Weather History & Observations

Time (MST) Temp. Windchill Dew Point Humidity Pressure Visibility Wind Dir Wind Speed Gust Speed Precip Events Conditions
12:15 AM 6.8 °F -9.3 °F 1.4 °F 79% 29.89 in 10.0 mi WNW 12.7 mph - N/A   Clear
12:35 AM 8.6 °F -10.5 °F 1.4 °F 73% 29.89 in 10.0 mi WNW 19.6 mph 23.0 mph N/A   Clear
12:55 AM 8.6 °F -7.0 °F 1.4 °F 73% 29.89 in 10.0 mi West 12.7 mph - N/A   Scattered Clouds
1:15 AM 8.6 °F -8.3 °F 3.2 °F 79% 29.89 in 10.0 mi WNW 15.0 mph - N/A   Mostly Cloudy
1:35 AM 8.6 °F -8.9 °F 1.4 °F 73% 29.90 in 10.0 mi WNW 16.1 mph - N/A   Scattered Clouds
1:55 AM 8.6 °F -7.7 °F 3.2 °F 79% 29.90 in 4.0 mi WNW 13.8 mph - N/A   Clear
2:15 AM 8.6 °F -6.3 °F 3.2 °F 79% 29.91 in 10.0 mi WNW 11.5 mph - N/A   Partly Cloudy
2:35 AM 8.6 °F -6.3 °F 3.2 °F 79% 29.91 in 10.0 mi WNW 11.5 mph - N/A   Partly Cloudy
2:55 AM 8.6 °F -6.3 °F 3.2 °F 79% 29.90 in 7.0 mi WNW 11.5 mph - N/A   Clear
3:15 AM 8.6 °F -8.9 °F 3.2 °F 79% 29.89 in 8.0 mi WNW 16.1 mph - N/A   Clear
3:35 AM 8.6 °F -8.3 °F 1.4 °F 73% 29.89 in 10.0 mi WNW 15.0 mph 21.9 mph N/A   Clear
3:55 AM 8.6 °F -8.3 °F 1.4 °F 73% 29.89 in 10.0 mi WNW 15.0 mph - N/A   Clear
4:15 AM 8.6 °F -8.3 °F 1.4 °F 73% 29.90 in 10.0 mi WNW 15.0 mph - N/A   Clear
4:35 AM 8.6 °F -8.3 °F 3.2 °F 79% 29.90 in 10.0 mi WNW 15.0 mph 21.9 mph N/A   Clear
5:15 AM 8.6 °F -8.3 °F 3.2 °F 79% 29.90 in 6.0 mi WNW 15.0 mph 23.0 mph N/A   Clear
5:35 AM 8.6 °F -10.0 °F 3.2 °F 79% 29.89 in 4.0 mi WNW 18.4 mph - N/A   Clear
5:55 AM 8.6 °F -7.7 °F 3.2 °F 79% 29.90 in 7.0 mi WNW 13.8 mph 23.0 mph N/A   Clear
6:15 AM 8.6 °F -10.5 °F 1.4 °F 73% 29.91 in 7.0 mi WNW 19.6 mph 23.0 mph N/A   Clear
6:35 AM 8.6 °F -9.5 °F 1.4 °F 73% 29.91 in 8.0 mi WNW 17.3 mph - N/A   Clear
6:55 AM 8.6 °F -8.3 °F 3.2 °F 79% 29.92 in 5.0 mi WNW 15.0 mph - N/A   Clear
7:15 AM 8.6 °F -8.3 °F 3.2 °F 79% 29.92 in 5.0 mi WNW 15.0 mph 19.6 mph N/A   Clear
7:35 AM 8.6 °F -10.5 °F 3.2 °F 79% 29.92 in 5.0 mi WNW 19.6 mph 24.2 mph N/A   Clear
7:55 AM 8.6 °F -10.0 °F 3.2 °F 79% 29.93 in 8.0 mi WNW 18.4 mph 25.3 mph N/A   Clear
8:15 AM 8.6 °F -9.5 °F 1.4 °F 73% 29.93 in 10.0 mi WNW 17.3 mph 26.5 mph N/A   Clear
8:35 AM 10.4 °F -7.2 °F 3.2 °F 73% 29.94 in 10.0 mi NW 17.3 mph 24.2 mph N/A   Clear
8:55 AM 10.4 °F -6.0 °F 3.2 °F 73% 29.95 in 5.0 mi WNW 15.0 mph - N/A   Clear
9:15 AM 10.4 °F -8.2 °F 3.2 °F 73% 29.94 in 3.0 mi WNW 19.6 mph 26.5 mph N/A   Clear
9:35 AM 10.4 °F -8.6 °F 5.0 °F 79% 29.95 in 5.0 mi WNW 20.7 mph 25.3 mph N/A   Clear
9:55 AM 10.4 °F -7.7 °F 3.2 °F 73% 29.95 in 4.0 mi WNW 18.4 mph - N/A   Clear
10:15 AM 10.4 °F -7.7 °F 5.0 °F 79% 29.96 in 5.0 mi WNW 18.4 mph 25.3 mph N/A   Clear
10:35 AM 12.2 °F -5.8 °F 5.0 °F 73% 29.97 in 6.0 mi WNW 19.6 mph 25.3 mph N/A   Scattered Clouds
10:55 AM 12.2 °F -4.8 °F 6.8 °F 79% 29.97 in 4.0 mi WNW 17.3 mph - N/A   Scattered Clouds
11:15 AM 12.2 °F -5.8 °F 5.0 °F 73% 29.97 in 3.0 mi WNW 19.6 mph 26.5 mph N/A   Partly Cloudy
11:35 AM 12.2 °F -7.1 °F 6.8 °F 79% 29.96 in 4.0 mi WNW 23.0 mph 27.6 mph N/A   Partly Cloudy
11:55 AM 12.2 °F -4.8 °F 6.8 °F 79% 29.97 in 10.0 mi WNW 17.3 mph 24.2 mph N/A   Clear
12:15 PM 12.2 °F -5.8 °F 6.8 °F 79% 29.97 in 10.0 mi West 19.6 mph 25.3 mph N/A   Clear
12:35 PM 12.2 °F -6.7 °F 6.8 °F 79% 29.97 in 10.0 mi WNW 21.9 mph 29.9 mph N/A   Clear
12:55 PM 12.2 °F -6.7 °F 6.8 °F 79% 29.97 in 10.0 mi WNW 21.9 mph 27.6 mph N/A   Clear
1:35 PM 12.2 °F -6.7 °F 6.8 °F 79% 29.97 in 10.0 mi WNW 21.9 mph 28.8 mph N/A   Clear
1:55 PM 14.0 °F -3.4 °F 6.8 °F 73% 29.96 in 10.0 mi WNW 19.6 mph 27.6 mph N/A   Partly Cloudy
2:15 PM 14.0 °F -4.7 °F 8.6 °F 79% 29.97 in 10.0 mi WNW 23.0 mph 29.9 mph N/A   Partly Cloudy
2:35 PM 12.2 °F -6.3 °F 6.8 °F 79% 29.98 in 10.0 mi WNW 20.7 mph 27.6 mph N/A   Partly Cloudy
2:55 PM 12.2 °F -5.8 °F 6.8 °F 79% 29.99 in 10.0 mi WNW 19.6 mph 28.8 mph N/A   Clear
3:15 PM 12.2 °F -4.8 °F 6.8 °F 79% 30.00 in 10.0 mi WNW 17.3 mph 25.3 mph N/A   Clear
3:35 PM 12.2 °F -4.8 °F 6.8 °F 79% 30.00 in 10.0 mi WNW 17.3 mph - N/A   Clear
3:55 PM 12.2 °F -3.7 °F 6.8 °F 79% 30.01 in 10.0 mi WNW 15.0 mph - N/A   Clear
4:15 PM 12.2 °F -5.3 °F 6.8 °F 79% 30.01 in 10.0 mi WNW 18.4 mph 21.9 mph N/A   Clear
4:35 PM 12.2 °F -4.3 °F 6.8 °F 79% 30.01 in 10.0 mi WNW 16.1 mph - N/A   Clear
4:55 PM 12.2 °F -2.5 °F 6.8 °F 79% 30.02 in 10.0 mi WNW 12.7 mph - N/A   Clear
5:15 PM 12.2 °F -2.5 °F 6.8 °F 79% 30.02 in 10.0 mi WNW 12.7 mph - N/A   Mostly Cloudy
5:35 PM 12.2 °F -3.7 °F 6.8 °F 79% 30.03 in 10.0 mi WNW 15.0 mph - N/A   Scattered Clouds
5:55 PM 12.2 °F -2.5 °F 6.8 °F 79% 30.04 in 10.0 mi WNW 12.7 mph - N/A   Mostly Cloudy
6:15 PM 10.4 °F -4.1 °F 5.0 °F 79% 30.04 in 10.0 mi WNW 11.5 mph - N/A   Partly Cloudy
6:55 PM 8.6 °F -4.7 °F 3.2 °F 79% 30.04 in 10.0 mi WNW 9.2 mph - N/A   Clear
7:15 PM 6.8 °F -0.1 °F -4.0 °F 61% 30.05 in 10.0 mi West 3.5 mph - N/A   Clear
7:35 PM 6.8 °F - 3.2 °F 85% 30.05 in 10.0 mi Calm Calm - N/A   Clear
7:55 PM 6.8 °F -3.5 °F -0.4 °F 72% 30.05 in 10.0 mi West 5.8 mph - N/A   Clear
8:15 PM 5.0 °F -6.9 °F -0.4 °F 78% 30.05 in 10.0 mi West 6.9 mph - N/A   Clear
8:35 PM 6.8 °F -6.9 °F -0.4 °F 72% 30.06 in 10.0 mi West 9.2 mph - N/A   Clear
8:55 PM 5.0 °F -4.1 °F -0.4 °F 78% 30.06 in 10.0 mi West 4.6 mph - N/A   Clear
9:35 PM 5.0 °F -2.1 °F -0.4 °F 78% 30.06 in 10.0 mi SSW 3.5 mph - N/A   Clear
9:55 PM 3.2 °F - -0.4 °F 85% 30.06 in 10.0 mi Calm Calm - N/A   Clear
10:15 PM 5.0 °F -2.1 °F 1.4 °F 85% 30.06 in 10.0 mi SSW 3.5 mph - N/A   Clear
10:35 PM 3.2 °F -4.2 °F -5.8 °F 66% 30.06 in 10.0 mi SSW 3.5 mph - N/A   Clear
10:55 PM 3.2 °F -4.2 °F -5.8 °F 66% 30.07 in 10.0 mi SW 3.5 mph - N/A   Clear
11:15 PM 1.4 °F -6.2 °F -2.2 °F 85% 30.07 in 10.0 mi WSW 3.5 mph - N/A   Clear
11:35 PM -2.2 °F -15.6 °F -9.4 °F 71% 30.07 in 10.0 mi SW 6.9 mph - N/A   Clear
11:55 PM -0.4 °F -15.7 °F -5.8 °F 78% 30.07 in 10.0 mi SW 9.2 mph - N/A   Clear